| time (UTC) | temp F | wind direction | speed knots | gust knots | rain 1hr in | rain 24hr in | rain mn in | humidity % | barometer mb |
| 20260506040853 | 39 | 0 | 0.0 | 0.0 | 0.00 | 0.00 | 0.00 | 50 | 1015.0 |
| 20260506035853 | 39 | 0 | 0.0 | 0.0 | 0.00 | 0.00 | 0.00 | 50 | 1015.0 |
| 20260506034853 | 37 | 360 | 1.7 | 1.7 | 0.00 | 0.00 | 0.00 | 50 | 1015.0 |
| 20260506033823 | 37 | 360 | 1.7 | 1.7 | 0.00 | 0.00 | 0.00 | 50 | 1015.0 |
| 20260506032823 | 37 | 360 | 1.7 | 1.7 | 0.00 | 0.00 | 0.00 | 50 | 1015.0 |
| 20260506031823 | 37 | 0 | 0.0 | 0.0 | 0.00 | 0.00 | 0.00 | 50 | 1015.0 |
| 20260506030823 | 37 | 0 | 0.0 | 0.0 | 0.00 | 0.00 | 0.00 | 50 | 1015.0 |
| 20260506025823 | 37 | 0 | 0.0 | 0.0 | 0.00 | 0.00 | 0.00 | 50 | 1015.0 |
| 20260506024823 | 39 | 80 | 2.6 | 2.6 | 0.00 | 0.00 | 0.00 | 50 | 1015.0 |
| 20260506023823 | 39 | 80 | 2.6 | 2.6 | 0.00 | 0.00 | 0.00 | 50 | 1015.0 |
| 20260506022823 | 39 | 80 | 2.6 | 2.6 | 0.00 | 0.00 | 0.00 | 50 | 1015.0 |
| 20260506021823 | 39 | 80 | 3.5 | 3.5 | 0.00 | 0.00 | 0.00 | 50 | 1015.0 |
| 20260506020823 | 39 | 80 | 3.5 | 3.5 | 0.00 | 0.00 | 0.00 | 50 | 1015.0 |
| 20260506015823 | 39 | 80 | 3.5 | 3.5 | 0.00 | 0.00 | 0.00 | 50 | 1015.0 |
| 20260506014823 | 41 | 0 | 0.0 | 0.0 | 0.00 | 0.00 | 0.00 | 50 | 1015.0 |
| 20260506013823 | 41 | 0 | 0.0 | 0.0 | 0.00 | 0.00 | 0.00 | 50 | 1015.0 |
| 20260506012823 | 41 | 0 | 0.0 | 0.0 | 0.00 | 0.00 | 0.00 | 50 | 1015.0 |
| 20260506011823 | 41 | 0 | 0.0 | 0.0 | 0.00 | 0.00 | 0.00 | 50 | 1015.0 |
| 20260506010823 | 41 | 0 | 0.0 | 0.0 | 0.00 | 0.00 | 0.00 | 50 | 1015.0 |
| 20260506005823 | 41 | 0 | 0.0 | 0.0 | 0.00 | 0.00 | 0.00 | 50 | 1015.0 |
| 20260506004823 | 41 | 0 | 0.0 | 0.0 | 0.00 | 0.00 | 0.00 | 50 | 1015.0 |
| 20260506003823 | 41 | 0 | 0.0 | 0.0 | 0.00 | 0.00 | 0.00 | 50 | 1015.0 |
| 20260506002823 | 41 | 0 | 0.0 | 0.0 | 0.00 | 0.00 | 0.00 | 50 | 1015.0 |
| 20260506001753 | 41 | 0 | 0.0 | 0.0 | 0.00 | 0.00 | 0.00 | 50 | 1015.0 |
| 20260506000753 | 41 | 0 | 0.0 | 0.0 | 0.00 | 0.00 | 0.00 | 50 | 1015.0 |
| 20260505235753 | 41 | 0 | 0.0 | 0.0 | 0.00 | 0.00 | 0.00 | 50 | 1015.0 |
| 20260505234753 | 41 | 280 | 1.7 | 1.7 | 0.00 | 0.00 | 0.00 | 50 | 1015.0 |
| 20260505233753 | 41 | 280 | 1.7 | 1.7 | 0.00 | 0.00 | 0.00 | 50 | 1015.0 |
| 20260505232753 | 41 | 280 | 1.7 | 1.7 | 0.00 | 0.00 | 0.00 | 50 | 1015.0 |
| 20260505231753 | 42 | 0 | 0.0 | 0.0 | 0.00 | 0.00 | 0.00 | 50 | 1015.0 |
| 20260505230753 | 42 | 0 | 0.0 | 0.0 | 0.00 | 0.00 | 0.00 | 50 | 1015.0 |
| 20260505225753 | 42 | 0 | 0.0 | 0.0 | 0.00 | 0.00 | 0.00 | 50 | 1015.0 |
| 20260505224753 | 44 | 260 | 2.6 | 2.6 | 0.00 | 0.00 | 0.00 | 50 | 1015.0 |
| 20260505223753 | 44 | 260 | 2.6 | 2.6 | 0.00 | 0.00 | 0.00 | 50 | 1015.0 |
| 20260505222753 | 44 | 260 | 2.6 | 2.6 | 0.00 | 0.00 | 0.00 | 50 | 1015.0 |
| 20260505221753 | 46 | 0 | 0.0 | 0.0 | 0.00 | 0.00 | 0.00 | 50 | 1015.0 |
| 20260505220753 | 46 | 0 | 0.0 | 0.0 | 0.00 | 0.00 | 0.00 | 50 | 1015.0 |
| 20260505215753 | 48 | 0 | 0.0 | 0.0 | 0.00 | 0.00 | 0.00 | 50 | 1015.0 |
| 20260505214524 | 48 | 0 | 0.0 | 0.0 | 0.00 | 0.00 | 0.00 | 50 | 1015.0 |
| 20260505213524 | 48 | 0 | 0.0 | 0.0 | 0.00 | 0.00 | 0.00 | 50 | 1015.0 |
| 20260505212554 | 37 | 0 | 0.0 | 0.0 | 0.00 | 0.00 | 0.00 | 50 | 1015.0 |